Temperature
20 20 20 20 20 21 22 23 24 24 24 24 24 24 23 21 20 18 18 18 18 18 18 18 18 18 17 17 17 17 17 17 17 17 17 17 17 17 17 17 17 17 17 17 17 17 17 17 17
20 20 20 20 21 22 22 23 23 24 24 24 24 23 22 21 19 18 18 18 18 17 17 17 17 17 17 17 17 17 17 17 17 17 17 17 17 17 17 17 17 17 17 17 17 17 17 17 17
20 20 20 21 22 22 22 23 23 24 24 24 23 22 21 20 19 18 18 18 18 17 17 17 17 17 17 17 17 17 17 17 17 17 17 17 16 16 17 17 16 16 17 17 17 17 17 17 17
21 21 22 22 22 23 23 24 24 24 24 24 23 22 20 19 19 18 18 18 18 17 17 17 17 17 17 17 17 17 17 16 16 16 16 16 16 16 16 16 16 16 16 16 17 17 17 17 17
21 22 22 22 23 23 24 24 24 24 24 24 23 21 19 19 18 18 18 18 18 17 17 17 17 17 17 17 17 16 17 17 16 16 16 16 16 16 16 16 16 16 16 16 16 17 17 17 17
22 23 22 22 23 23 24 24 24 24 23 23 22 21 19 18 18 18 18 18 18 18 17 18 17 17 17 17 17 16 17 17 17 17 16 16 16 16 16 16 16 16 16 16 16 17 17 17 17
22 22 22 23 23 23 23 24 24 24 23 23 22 20 19 18 18 18 18 18 18 18 18 18 17 17 17 17 17 17 17 17 17 17 17 17 16 16 16 16 16 16 16 16 17 17 17 17 17
23 22 23 23 23 22 23 23 23 23 23 22 22 21 19 18 18 18 18 18 18 18 18 18 17 17 17 17 17 17 17 17 17 17 17 17 16 16 16 16 16 16 16 17 17 17 17 17 17
23 22 22 23 23 22 23 23 23 22 22 22 22 21 19 19 18 18 18 18 18 18 18 18 18 17 17 17 17 17 17 17 17 17 17 16 16 16 16 16 16 16 16 16 16 17 17 17 17
24 22 23 24 24 23 23 23 23 23 22 21 20 20 19 19 19 19 19 18 18 18 18 18 18 18 17 17 17 17 17 17 17 17 17 17 16 16 16 16 16 16 16 16 16 16 16 16 16
24 23 24 24 24 23 23 23 23 23 22 22 20 19 19 19 19 19 19 19 18 18 18 18 18 18 18 17 17 17 17 17 17 17 17 17 17 16 16 16 16 16 16 16 16 16 16 16 16
24 24 24 24 23 23 23 23 22 22 22 21 21 20 20 20 19 19 19 19 19 19 19 19 19 18 18 18 17 17 17 17 17 17 17 17 17 17 16 16 16 16 16 16 16 17 17 16 16
24 24 24 23 23 22 22 22 22 22 21 21 21 20 20 20 20 20 19 19 19 19 18 19 19 18 18 18 18 17 17 17 17 17 17 17 17 17 17 16 16 16 16 16 16 16 17 16 16
24 24 24 23 23 22 22 22 22 21 21 21 20 20 20 20 20 20 20 19 19 19 19 18 18 18 18 18 18 18 17 17 17 17 17 17 17 17 17 16 16 16 16 16 16 16 16 16 16
24 23 24 24 23 23 23 22 22 21 21 21 21 20 20 20 20 20 20 20 19 19 19 18 18 18 18 18 18 17 17 17 17 17 17 17 17 17 17 16 16 16 16 16 16 16 16 16 16
24 23 23 24 24 23 22 21 22 21 21 21 21 21 20 20 20 20 20 20 19 19 19 18 18 18 18 18 17 17 17 17 17 17 17 17 17 17 17 17 16 16 16 16 16 16 16 16 16
23 23 23 23 24 24 23 21 22 22 22 21 21 21 21 20 20 20 20 20 19 19 19 18 18 18 17 17 17 17 17 17 17 17 17 17 17 17 17 17 16 16 16 16 16 16 16 16 16
23 23 23 23 24 24 23 22 22 22 22 22 22 21 21 21 21 20 20 20 19 19 19 18 18 18 17 17 17 17 17 17 17 17 16 17 17 17 17 17 16 16 16 16 16 16 16 16 16
24 23 23 23 24 24 23 22 22 22 22 22 22 22 22 21 21 21 20 20 19 19 19 18 18 18 17 17 17 17 17 17 17 16 16 16 17 17 17 16 16 16 16 16 16 16 16 16 16
24 23 23 23 24 24 23 22 22 22 22 22 22 22 22 22 21 21 20 20 19 19 19 18 18 18 17 17 17 17 17 17 17 16 16 16 16 16 17 16 16 16 16 16 16 16 16 16 16
24 23 23 22 23 24 23 22 22 23 23 22 22 23 22 22 22 21 20 20 20 19 19 19 18 18 18 17 17 17 17 17 17 16 16 16 16 16 16 16 16 16 16 16 16 16 16 16 16
23 24 24 23 22 22 23 21 22 23 22 22 22 23 23 22 22 21 21 20 20 19 19 19 19 18 18 17 17 17 17 17 17 16 16 16 16 16 16 16 16 16 16 16 16 16 15 15 15
23 24 24 23 22 22 23 22 22 23 22 23 23 23 23 22 22 21 21 21 20 20 19 19 19 18 18 18 17 17 17 17 17 17 16 16 16 16 16 16 16 16 16 16 16 16 16 15 15
24 24 23 23 22 21 23 23 22 23 23 23 23 23 23 22 22 21 21 21 20 20 19 19 19 18 18 18 17 17 17 17 17 17 16 16 16 16 16 16 16 16 16 16 16 16 15 15 15
24 22 21 21 20 21 24 23 23 24 25 24 24 23 23 22 22 21 21 20 20 20 19 19 19 18 18 18 17 17 17 17 17 17 17 17 16 16 16 16 16 16 16 16 16 15 15 15 15
23 22 20 20 21 22 24 23 24 25 25 24 24 23 23 22 22 21 21 20 20 20 19 19 19 18 18 18 17 17 17 17 17 17 17 17 17 16 16 16 16 16 16 16 15 15 15 15 15
23 23 23 22 22 22 23 24 24 25 24 24 24 23 23 22 22 21 21 20 20 20 19 19 19 18 18 18 18 17 17 17 17 17 17 17 17 16 16 16 16 16 16 16 15 15 15 15 15
24 24 23 22 21 21 22 22 22 23 24 24 23 23 23 22 22 21 20 20 20 19 19 19 19 18 18 18 18 17 17 17 17 17 17 17 17 16 16 16 16 16 16 15 15 15 15 15 15
24 24 24 23 22 21 20 21 24 23 24 24 23 23 23 22 21 21 20 20 20 19 19 19 19 18 18 18 18 17 17 17 17 17 17 17 17 16 16 16 16 16 16 15 15 15 15 14 14
25 24 24 22 22 22 21 21 24 24 24 24 24 23 23 22 21 21 20 20 19 19 19 19 19 18 18 18 18 18 17 17 17 17 17 16 16 16 16 16 16 16 15 15 15 15 15 14 14
Wind_Speed
6 6 4 1 2 2 1 3 5 6 6 9 10 10 12 12 9 9 4 5 10 11 13 12 12 12 12 12 12 11 11 11 11 11 11 11 10 10 10 9 9 9 9 9 9 9 10 11 10
7 3 2 2 2 1 3 5 8 9 8 7 9 11 12 10 10 8 5 6 10 12 12 12 12 12 12 12 12 11 11 11 11 11 11 11 10 10 10 9 9 9 9 9 9 9 10 10 10
8 4 3 2 2 1 3 5 8 8 7 7 7 10 8 6 8 6 6 8 11 12 14 13 13 12 12 12 12 11 11 11 11 11 11 10 10 10 10 9 9 9 9 9 9 9 9 10 9
4 2 3 2 1 4 5 6 6 7 6 7 9 9 8 8 6 9 9 10 12 12 14 13 13 13 12 12 11 11 12 12 11 11 10 10 10 10 10 10 9 9 9 9 9 9 9 9 8
3 3 3 2 2 5 5 6 5 7 6 8 11 9 9 9 11 11 8 10 11 12 14 14 13 13 12 12 11 11 11 11 10 10 10 10 10 10 10 10 9 9 9 9 9 9 9 8 7
2 3 3 1 4 5 5 5 6 8 9 9 10 10 7 8 9 8 7 8 11 11 13 14 13 13 13 12 11 10 10 9 9 9 8 9 9 10 10 10 9 8 8 9 9 9 8 7 7
3 3 4 1 4 4 4 4 5 6 8 6 6 8 8 8 7 6 7 7 8 10 11 12 13 13 13 11 10 9 9 8 7 6 6 6 7 9 10 9 9 8 8 8 8 8 8 7 5
2 3 4 1 3 3 4 4 5 6 6 5 4 7 8 9 8 7 7 7 7 7 7 8 11 13 12 11 9 8 7 6 5 4 4 5 5 7 9 9 8 8 7 7 7 7 6 5 4
3 3 2 2 3 4 4 4 4 5 6 6 8 11 13 12 10 9 6 6 5 6 6 6 7 8 10 10 9 8 7 5 4 4 4 4 5 6 8 9 8 7 6 6 5 5 5 4 2
2 2 2 4 4 4 4 4 4 4 8 8 12 14 14 12 10 9 8 7 6 5 5 5 6 6 7 7 7 6 5 5 4 4 4 3 5 7 9 8 6 5 5 4 3 3 3 3 2
2 0 3 5 5 4 3 4 3 4 5 8 12 14 12 11 9 8 8 7 6 5 4 5 5 6 6 4 4 3 3 3 2 3 5 5 6 6 7 5 5 4 4 3 3 3 3 2 4
1 2 3 4 4 3 2 3 3 5 5 8 11 13 12 11 9 7 8 8 6 5 4 4 4 5 5 5 3 3 2 1 3 2 4 5 3 2 4 3 3 4 3 2 2 2 5 7 7
1 2 3 4 4 3 3 4 4 6 7 8 10 11 9 9 9 7 7 8 8 6 4 4 3 5 5 4 1 3 3 3 5 3 3 6 3 2 3 4 3 3 4 3 2 4 6 6 7
2 3 3 4 4 3 4 3 3 6 8 9 8 7 8 7 7 8 7 7 8 7 6 4 4 4 4 3 2 3 3 4 5 3 3 7 4 3 2 3 3 3 4 4 4 4 4 4 4
3 3 3 4 4 4 2 2 5 8 9 9 8 7 7 7 6 6 7 6 7 7 7 5 4 4 4 4 4 4 3 5 4 3 5 6 5 5 4 3 3 3 4 5 4 4 4 3 3
5 5 4 5 6 5 3 3 6 8 9 8 8 7 6 6 7 6 7 6 6 6 8 6 4 5 6 4 3 3 5 5 4 5 6 6 5 8 6 3 3 4 5 4 3 3 3 3 3
7 6 4 4 6 5 5 3 7 8 10 8 8 8 8 7 7 6 7 7 6 6 7 7 5 5 6 4 3 3 4 4 5 6 6 6 6 7 6 3 2 5 4 3 3 4 3 3 2
4 3 1 1 4 5 5 5 7 8 9 9 8 9 9 9 8 8 8 7 6 6 7 7 6 5 5 3 3 3 3 3 4 5 4 5 5 7 6 3 4 5 3 3 3 3 2 1 1
4 3 1 1 2 3 4 5 6 7 7 8 8 9 10 9 9 9 8 8 7 6 7 7 7 6 5 3 2 2 2 1 2 3 4 4 4 5 4 3 3 3 3 2 3 3 2 1 1
3 2 1 1 1 2 3 4 6 9 9 9 9 9 9 9 9 10 10 9 7 6 6 7 7 7 6 4 3 3 3 2 2 2 3 4 4 4 3 3 2 3 3 3 3 3 2 1 1
3 2 1 2 3 3 3 5 7 9 9 7 7 7 9 11 11 11 10 9 8 7 6 7 7 7 7 6 2 2 3 1 2 2 1 1 3 4 3 2 2 2 3 2 1 2 2 1 2
3 1 2 4 4 4 5 3 4 8 9 10 9 8 7 8 9 10 10 10 9 8 7 7 6 7 7 7 4 4 3 2 3 3 2 2 3 3 2 2 2 2 2 2 1 1 1 1 1
2 2 3 5 5 6 8 4 3 7 8 10 10 9 8 8 8 9 9 9 9 8 6 6 6 6 6 6 5 4 3 2 2 3 3 3 2 3 2 1 2 2 2 2 2 2 2 1 1
2 4 5 6 4 6 7 4 2 4 7 9 10 9 8 8 8 9 8 7 7 8 6 5 6 6 6 6 6 5 4 3 3 3 3 3 2 2 2 2 1 1 2 2 2 1 1 1 1
4 3 3 2 3 4 3 2 1 3 4 5 7 8 8 8 8 9 9 8 7 8 8 6 7 6 6 6 7 6 5 4 4 3 3 3 2 2 3 2 1 1 2 2 2 1 1 1 1
4 3 3 2 2 3 2 2 2 4 4 5 5 6 7 8 8 9 9 8 8 8 8 7 7 7 6 6 6 6 5 4 3 4 3 3 3 3 4 3 2 2 2 2 2 1 0 1 1
4 4 5 5 6 4 2 2 3 4 4 5 7 7 7 9 8 8 9 8 8 8 8 7 7 7 7 7 6 5 5 4 4 3 3 3 2 3 4 4 3 2 2 2 2 1 1 1 1
7 6 4 3 3 3 2 1 1 3 4 5 6 7 7 8 8 8 8 8 8 7 7 7 7 7 7 7 6 5 5 4 4 3 3 3 3 2 4 3 3 3 3 2 2 1 0 2 1
6 6 5 4 3 2 2 2 1 3 4 4 5 7 8 8 8 8 7 6 7 7 6 6 6 6 6 6 5 5 5 5 4 3 3 3 3 4 4 3 3 3 3 3 3 2 1 1 1
6 5 4 3 4 2 2 2 1 3 3 3 5 6 7 7 7 8 7 7 6 7 6 6 6 6 6 5 5 5 5 4 4 4 3 4 3 3 3 4 3 2 3 3 3 2 2 1 1
Wind_Direction
247 233 223 258 274 246 51 69 81 74 64 52 54 66 68 54 62 95 128 96 102 102 100 91 87 84 80 77 76 75 73 74 75 74 72 69 69 69 68 68 71 73 72 71 70 69 69 66 61
259 240 245 249 271 317 64 70 71 66 79 77 63 70 73 70 81 100 111 97 101 101 97 94 91 86 82 78 75 75 76 77 77 76 74 71 70 68 67 67 71 73 74 72 71 72 73 69 63
251 242 246 240 278 25 76 75 83 80 72 76 75 63 62 73 84 105 122 113 101 96 96 97 95 90 86 81 78 77 79 79 80 77 74 71 68 67 66 66 70 72 72 72 71 72 73 71 64
240 239 243 245 23 57 82 95 99 96 81 77 85 77 73 61 88 115 124 112 106 104 103 102 98 94 89 85 82 81 82 81 79 76 72 70 68 67 67 66 69 72 72 74 74 73 74 70 63
242 252 258 246 73 75 76 76 84 86 85 73 81 89 86 79 95 109 114 113 111 110 112 111 107 101 95 91 88 85 83 81 79 77 74 71 68 69 69 67 68 72 73 74 76 78 78 71 62
272 267 274 251 93 74 73 72 80 86 93 91 97 101 97 102 101 109 110 107 109 113 114 117 118 111 102 94 90 88 85 83 83 82 79 77 75 74 72 70 69 73 76 77 79 81 82 75 66
277 289 279 256 105 93 75 54 71 85 88 83 95 102 115 113 108 108 99 92 102 112 121 129 131 121 112 104 99 95 94 93 94 95 94 90 87 84 79 74 70 73 80 83 85 87 88 81 71
282 290 293 324 103 94 91 79 62 75 79 82 90 112 129 131 128 111 101 100 106 117 124 126 132 136 131 122 118 116 113 117 123 126 129 123 115 105 93 81 76 77 86 91 94 96 101 95 80
258 274 304 16 90 103 117 101 79 87 94 79 71 94 124 135 134 128 125 116 110 116 121 119 117 120 125 129 133 148 148 152 159 175 180 174 163 142 107 89 88 86 98 103 109 116 123 126 125
230 285 352 45 83 108 110 100 110 123 111 107 101 106 125 140 145 146 145 136 129 121 122 122 125 124 115 111 130 151 146 156 172 152 147 150 101 92 101 112 110 107 119 130 141 157 176 195 175
250 252 28 45 68 96 107 100 116 127 119 128 129 134 145 152 151 142 130 124 122 126 120 122 129 121 120 118 125 111 106 127 105 93 107 94 98 117 125 140 145 144 143 161 168 205 200 125 83
169 45 45 55 67 87 101 108 97 75 87 110 126 140 151 154 149 141 140 137 133 124 124 126 133 125 116 105 109 112 99 104 81 47 99 95 76 82 95 103 106 117 103 66 45 54 68 65 64
145 116 100 92 89 97 95 96 106 101 101 111 127 141 153 155 148 144 143 139 134 134 132 105 88 92 102 97 96 110 83 54 77 23 65 97 93 93 94 90 68 81 87 77 42 49 58 56 51
103 112 126 130 120 125 126 130 131 130 130 132 139 149 157 151 150 150 156 147 141 144 133 116 114 99 104 117 105 79 90 88 78 20 46 90 83 82 77 89 74 64 76 79 66 66 68 72 67
157 177 184 173 168 163 138 153 158 146 146 150 154 157 159 161 164 162 157 149 146 145 133 128 117 102 88 76 66 74 72 86 79 36 30 70 83 82 74 74 74 61 59 77 70 66 65 74 82
214 216 215 192 185 177 185 184 146 151 156 161 166 163 169 172 173 170 157 153 146 139 131 132 130 109 91 75 61 64 60 60 66 48 28 35 68 84 72 62 70 63 50 62 66 60 52 57 59
226 222 206 187 189 182 194 193 161 174 165 170 177 175 177 179 184 171 160 157 150 141 134 137 131 121 112 109 94 64 73 55 62 54 33 22 36 73 84 69 68 71 60 51 58 56 52 60 56
246 230 232 202 183 189 192 189 177 188 183 182 181 181 184 185 183 172 161 150 144 147 142 136 126 125 119 112 99 75 62 55 64 63 48 30 33 53 69 78 75 75 69 44 52 70 59 62 46
275 276 277 282 192 202 200 193 189 190 195 190 189 191 189 185 177 163 157 154 153 157 150 143 149 148 128 116 108 107 103 85 76 68 56 42 48 56 63 62 70 79 84 71 62 63 49 20 52
239 234 275 328 270 234 211 223 202 196 202 199 199 197 189 178 170 162 165 165 170 168 161 159 159 148 138 137 143 143 136 122 99 69 56 45 59 55 74 82 82 91 89 67 48 60 36 350 30
255 246 245 277 296 271 254 246 211 195 198 199 210 210 193 182 177 170 171 169 171 170 172 166 156 146 142 143 133 112 91 88 105 112 95 50 75 76 65 82 101 112 104 104 78 69 58 8 340
280 274 232 241 261 263 235 251 204 186 189 192 200 206 198 184 175 170 172 172 174 174 172 166 162 155 148 141 150 150 162 180 168 154 156 148 116 96 72 55 73 94 107 114 100 88 61 62 345
287 292 271 260 262 270 260 244 214 177 190 189 188 192 190 183 177 169 169 170 174 169 167 167 161 150 146 149 152 170 191 185 146 139 148 152 131 125 126 98 80 97 107 111 101 77 57 71 23
245 276 268 253 257 259 247 229 204 185 195 182 178 181 183 178 169 167 162 162 166 155 157 158 155 153 153 157 165 189 194 172 150 154 155 155 143 159 160 137 115 128 133 119 99 96 97 74 34
244 286 301 260 221 246 224 211 196 160 166 173 175 176 178 175 171 167 162 164 158 152 157 160 157 159 164 173 182 183 184 181 175 170 166 165 157 168 173 135 170 156 122 110 107 87 89 108 91
250 246 258 291 278 292 266 203 129 121 136 153 154 164 168 167 168 164 161 161 158 158 161 167 166 168 172 181 187 185 176 177 182 179 168 178 175 175 156 149 158 132 124 125 117 109 154 133 134
273 253 242 264 278 278 258 138 119 120 130 145 154 162 167 162 162 159 158 160 160 161 166 172 168 169 176 187 187 185 174 176 176 178 179 172 170 158 139 148 152 136 127 122 127 135 185 113 61
259 280 277 266 287 286 280 242 188 163 152 159 160 162 161 153 154 153 157 160 160 163 167 172 168 173 180 185 186 181 172 176 171 175 181 160 160 140 133 146 142 147 141 137 133 146 167 114 81
240 251 267 278 253 253 289 334 72 115 131 150 158 161 158 154 152 151 155 155 155 157 162 171 170 173 178 184 186 171 166 172 167 169 170 158 157 152 148 153 157 162 156 147 139 152 157 145 158
251 261 263 267 277 257 232 254 133 108 107 130 147 145 144 144 147 150 153 156 158 160 168 174 176 173 174 176 167 162 162 162 163 171 174 166 165 160 161 160 159 148 146 145 147 167 155 160 172
Height
1503 1504 1505 1507 1508 1508 1507 1501 1496 1497 1499 1502 1502 1503 1508 1513 1518 1530 1530 1529 1530 1529 1529 1530 1530 1530 1531 1531 1532 1532 1532 1532 1532 1532 1532 1532 1532 1532 1533 1533 1533 1534 1534 1535 1536 1536 1537 1537 1538
1504 1505 1507 1507 1509 1513 1510 1501 1501 1500 1502 1504 1505 1507 1511 1518 1522 1526 1528 1530 1531 1531 1530 1531 1531 1532 1532 1533 1533 1533 1533 1533 1534 1534 1534 1534 1534 1534 1534 1534 1534 1535 1535 1536 1537 1537 1538 1538 1539
1504 1506 1508 1506 1507 1510 1510 1503 1502 1503 1504 1505 1508 1511 1516 1522 1525 1527 1529 1531 1532 1532 1531 1532 1532 1533 1533 1534 1534 1534 1535 1535 1535 1535 1535 1535 1535 1535 1535 1535 1535 1536 1536 1537 1538 1538 1539 1539 1540
1505 1507 1507 1507 1508 1503 1502 1502 1502 1504 1506 1507 1509 1515 1521 1525 1526 1528 1530 1532 1532 1532 1533 1533 1534 1534 1535 1535 1535 1536 1536 1536 1536 1536 1537 1537 1536 1536 1537 1537 1537 1537 1538 1539 1539 1539 1540 1540 1541
1506 1506 1507 1508 1506 1502 1501 1502 1504 1505 1507 1509 1512 1519 1524 1527 1528 1530 1531 1533 1534 1534 1534 1535 1535 1536 1536 1536 1537 1537 1538 1538 1538 1538 1538 1538 1538 1538 1538 1538 1539 1539 1540 1540 1540 1541 1541 1541 1542
1507 1505 1510 1511 1507 1504 1503 1504 1505 1507 1510 1512 1515 1520 1527 1529 1530 1531 1533 1534 1535 1535 1536 1536 1537 1537 1538 1538 1538 1539 1539 1539 1540 1540 1540 1540 1540 1540 1540 1540 1540 1541 1541 1541 1542 1542 1542 1543 1543
1508 1506 1508 1506 1507 1507 1506 1507 1507 1509 1511 1514 1516 1521 1527 1530 1531 1533 1534 1535 1536 1537 1538 1538 1538 1539 1540 1540 1540 1541 1541 1541 1541 1542 1542 1542 1542 1542 1542 1542 1542 1542 1542 1543 1543 1543 1544 1544 1545
1507 1507 1506 1505 1508 1510 1508 1509 1510 1512 1514 1516 1517 1521 1527 1530 1532 1534 1535 1537 1538 1539 1540 1540 1541 1541 1541 1542 1542 1543 1543 1543 1543 1543 1543 1544 1543 1543 1543 1543 1543 1543 1543 1544 1544 1545 1546 1546 1546
1506 1509 1510 1507 1507 1509 1509 1509 1512 1514 1515 1517 1519 1521 1526 1530 1532 1534 1536 1538 1539 1540 1541 1542 1543 1543 1544 1544 1544 1545 1545 1545 1545 1545 1545 1545 1545 1545 1545 1545 1545 1545 1545 1545 1546 1547 1547 1548 1548
1505 1511 1508 1504 1504 1507 1509 1510 1513 1514 1517 1520 1522 1525 1528 1530 1533 1535 1536 1538 1540 1541 1543 1543 1544 1545 1546 1546 1546 1546 1547 1547 1547 1547 1547 1547 1548 1548 1547 1547 1547 1547 1547 1547 1548 1549 1549 1549 1550
1503 1507 1505 1505 1506 1508 1510 1511 1513 1514 1517 1520 1523 1526 1529 1531 1533 1535 1537 1539 1541 1542 1543 1544 1545 1546 1547 1547 1548 1548 1549 1549 1549 1549 1549 1549 1549 1549 1549 1549 1548 1548 1549 1549 1550 1550 1551 1551 1552
1504 1505 1506 1507 1508 1510 1511 1512 1515 1516 1519 1521 1523 1526 1529 1532 1534 1536 1538 1540 1542 1543 1544 1545 1546 1547 1547 1548 1549 1549 1550 1550 1550 1550 1551 1550 1550 1551 1551 1551 1551 1550 1551 1551 1551 1552 1553 1553 1553
1504 1506 1507 1509 1510 1511 1512 1514 1516 1519 1521 1522 1525 1528 1530 1532 1535 1537 1539 1541 1542 1544 1545 1546 1547 1548 1548 1549 1550 1550 1551 1551 1551 1551 1552 1552 1552 1552 1552 1552 1552 1552 1552 1553 1553 1553 1554 1554 1555
1505 1506 1508 1510 1511 1513 1513 1515 1517 1520 1522 1524 1526 1528 1531 1533 1535 1537 1539 1541 1542 1544 1545 1547 1548 1548 1549 1550 1550 1551 1552 1552 1552 1552 1553 1553 1553 1553 1553 1553 1553 1554 1554 1554 1554 1555 1555 1556 1556
1506 1508 1509 1509 1510 1513 1514 1517 1517 1519 1522 1524 1526 1528 1531 1533 1535 1537 1539 1541 1542 1544 1545 1547 1548 1549 1549 1550 1551 1552 1552 1553 1553 1553 1554 1554 1554 1554 1554 1554 1554 1555 1555 1555 1556 1556 1556 1557 1557
1506 1508 1512 1509 1509 1511 1516 1522 1518 1519 1521 1524 1526 1528 1530 1533 1534 1537 1538 1540 1542 1544 1545 1547 1548 1549 1549 1551 1552 1552 1553 1553 1553 1554 1554 1554 1555 1555 1555 1555 1555 1556 1556 1556 1557 1557 1557 1558 1558
1507 1512 1512 1509 1506 1508 1513 1518 1517 1519 1520 1523 1525 1527 1529 1531 1534 1536 1538 1540 1542 1544 1545 1546 1548 1549 1550 1551 1552 1553 1553 1554 1554 1554 1554 1555 1555 1555 1555 1556 1556 1556 1557 1557 1557 1558 1558 1558 1559
1511 1509 1509 1509 1506 1506 1511 1514 1515 1517 1519 1521 1523 1525 1527 1529 1532 1534 1537 1539 1541 1543 1545 1546 1548 1549 1550 1551 1552 1553 1554 1554 1554 1555 1555 1555 1555 1556 1556 1556 1557 1557 1557 1558 1558 1558 1559 1559 1560
1504 1507 1509 1508 1505 1507 1510 1512 1513 1515 1517 1518 1521 1522 1525 1527 1530 1533 1536 1538 1541 1543 1544 1546 1547 1549 1550 1551 1552 1553 1554 1554 1555 1555 1556 1556 1556 1556 1557 1557 1557 1557 1558 1558 1559 1559 1560 1560 1560
1504 1508 1510 1508 1504 1506 1510 1511 1510 1512 1514 1516 1517 1519 1522 1525 1528 1531 1534 1537 1540 1542 1544 1545 1547 1548 1549 1551 1552 1553 1554 1555 1555 1555 1556 1556 1556 1557 1557 1557 1558 1558 1558 1559 1559 1560 1560 1561 1561
1505 1508 1509 1511 1508 1506 1510 1513 1510 1508 1511 1513 1515 1517 1519 1522 1525 1529 1532 1535 1538 1540 1542 1544 1546 1547 1549 1550 1552 1553 1554 1554 1555 1556 1556 1556 1556 1557 1557 1558 1558 1558 1559 1559 1560 1560 1561 1561 1561
1509 1504 1505 1508 1513 1515 1510 1522 1510 1506 1508 1510 1513 1515 1517 1520 1523 1526 1530 1533 1536 1539 1541 1543 1545 1546 1548 1549 1551 1552 1553 1554 1555 1555 1556 1556 1556 1557 1557 1558 1558 1559 1559 1559 1560 1560 1561 1561 1561
1506 1503 1504 1506 1511 1515 1509 1515 1511 1502 1507 1507 1509 1512 1515 1518 1521 1524 1528 1531 1534 1537 1540 1542 1544 1545 1547 1548 1550 1551 1552 1553 1554 1555 1556 1556 1556 1557 1557 1558 1558 1559 1559 1559 1560 1560 1560 1561 1561
1503 1504 1505 1505 1512 1523 1510 1513 1513 1503 1501 1502 1505 1509 1512 1516 1519 1523 1526 1529 1533 1535 1538 1540 1542 1544 1545 1547 1549 1550 1551 1553 1554 1555 1555 1556 1556 1557 1557 1557 1558 1558 1559 1559 1559 1560 1560 1560 1561
1504 1513 1524 1525 1527 1521 1502 1507 1508 1496 1495 1498 1502 1506 1510 1514 1517 1521 1524 1528 1531 1533 1536 1538 1540 1542 1544 1546 1547 1549 1550 1551 1553 1554 1554 1555 1555 1556 1557 1557 1557 1558 1558 1558 1559 1559 1559 1560 1560
1505 1511 1528 1535 1530 1518 1503 1507 1500 1492 1494 1498 1501 1505 1508 1512 1516 1519 1522 1526 1529 1531 1534 1536 1538 1540 1542 1544 1546 1547 1549 1550 1551 1553 1553 1554 1555 1555 1556 1556 1557 1557 1558 1558 1558 1558 1559 1559 1559
1506 1507 1503 1513 1514 1518 1510 1501 1496 1492 1494 1497 1501 1504 1507 1511 1514 1517 1521 1524 1527 1529 1532 1534 1536 1538 1540 1542 1544 1546 1547 1549 1550 1551 1552 1553 1554 1554 1555 1555 1556 1557 1557 1557 1558 1558 1558 1559 1559
1500 1500 1504 1512 1525 1528 1517 1510 1508 1498 1497 1497 1500 1503 1506 1510 1513 1516 1519 1522 1525 1527 1530 1533 1535 1537 1539 1541 1542 1544 1546 1547 1549 1550 1551 1552 1552 1553 1554 1554 1555 1555 1556 1556 1557 1557 1557 1557 1558
1501 1501 1502 1505 1509 1524 1530 1521 1497 1496 1495 1497 1499 1502 1505 1509 1512 1515 1518 1520 1523 1526 1528 1531 1533 1535 1537 1539 1541 1542 1544 1546 1547 1548 1549 1550 1551 1552 1553 1553 1553 1554 1554 1555 1555 1556 1556 1556 1556
1494 1497 1501 1514 1513 1509 1520 1519 1493 1494 1495 1496 1499 1501 1504 1508 1511 1514 1516 1519 1521 1524 1526 1529 1531 1533 1535 1537 1539 1541 1542 1544 1545 1546 1547 1548 1549 1550 1551 1551 1552 1553 1553 1553 1554 1554 1554 1555 1555